Location: Misciano
(43.5000°N, 11.9500°E)
Time: 16:23:18
(UTC+00:00)

SL-16 R/B - Pass Details

Date: 13 August 2020
Orbit: 843 x 845 km, 71.0° (Epoch: 18 September)

Event Time Altitude Azimuth Distance (km) Brightness Sun altitude
Rises 18:40:30 0° 346° (NNW) 3,415 6.0 -4.6°
Reaches altitude 10° 18:44:22 10° 12° (NNE) 2,476 4.8 -5.2°
Maximum altitude 18:47:09 14° 42° (NE) 2,223 4.2 -5.7°
Drops below altitude 10° 18:49:54 10° 71° (ENE) 2,471 4.2 -6.1°
Enters shadow 18:52:16 - 89° (E) 2,989 4.5 -6.5°
